Probability
0 0 0 0 0 0 0 0 0 0 0 0 0 0 0 0 0 0 0 0 0 0 0 0 0 0 0 0 0 0 0 0 0 0 0 0 0 0 0 0 0 0 0 0 0 0 0 0 0
0 0 0 0 0 0 0 0 0 0 0 0 0 0 0 0 0 0 0 0 0 0 0 0 0 0 0 0 0 0 0 0 0 0 0 0 0 0 0 0 0 0 0 0 0 0 0 0 0
0 0 0 0 0 0 0 0 0 0 0 0 0 0 0 0 0 0 0 0 0 0 0 0 0 0 0 0 0 0 0 0 0 0 0 0 0 0 0 0 0 0 0 0 0 0 0 0 0
0 0 0 0 0 0 0 0 0 0 0 0 0 0 0 0 0 0 0 0 0 0 0 0 0 0 0 0 0 0 0 0 0 0 0 0 0 0 0 0 0 0 0 0 0 0 0 0 0
0 0 0 0 0 0 0 0 0 0 0 0 0 0 0 0 0 0 0 0 0 0 0 0 0 0 0 0 0 0 0 0 0 0 0 0 0 0 0 0 0 0 0 0 0 0 0 0 0
0 0 0 0 0 0 0 0 0 0 0 0 0 0 0 0 0 0 0 0 0 0 0 0 0 0 0 0 0 0 0 0 0 0 0 0 0 0 0 0 0 0 0 0 0 0 0 0 0
0 0 0 0 0 0 0 0 0 0 0 0 0 0 0 0 0 0 0 0 0 0 0 0 0 0 0 0 0 0 0 0 0 0 0 0 0 0 0 0 0 0 0 0 0 0 0 0 0
0 0 0 0 0 0 0 0 0 0 0 0 0 0 0 0 0 0 0 0 0 0 0 0 0 0 0 0 0 0 0 0 0 0 0 0 0 0 0 0 0 0 0 0 0 0 0 0 0
0 0 0 0 0 0 0 0 0 0 0 0 0 0 0 1 1 0 0 0 0 0 0 0 0 0 1 1 1 1 0 0 0 0 0 0 0 0 0 0 0 0 0 0 0 0 0 0 0
0 0 0 0 0 0 0 0 0 0 0 0 0 0 1 3 2 1 0 0 0 0 0 0 0 0 2 3 3 3 1 0 0 0 0 0 0 0 0 0 0 0 0 0 0 0 0 0 0
0 0 0 0 0 0 0 0 0 0 0 0 0 3 10 15 12 6 2 0 0 0 0 0 0 0 1 2 4 4 2 0 0 0 1 0 0 0 0 0 0 0 0 0 0 0 0 0 0
0 0 0 0 0 0 0 0 0 0 0 0 5 20 38 43 33 21 10 2 0 0 0 0 0 0 0 1 2 2 1 0 0 0 0 0 0 0 0 0 0 0 0 0 0 0 0 0 0
0 0 0 0 0 0 0 0 0 0 0 0 11 41 70 72 57 41 27 16 7 2 0 1 1 2 2 1 1 0 0 0 1 0 0 0 0 0 0 0 0 0 0 0 0 0 0 0 0
0 0 0 0 0 0 0 0 0 0 0 0 9 35 65 75 68 54 43 33 19 6 3 4 4 6 8 6 3 1 0 1 2 1 0 0 0 0 0 0 0 0 0 0 0 0 0 0 0
0 0 0 0 0 0 0 0 0 0 1 2 4 13 30 45 48 43 37 31 22 15 13 11 10 13 14 11 6 2 3 5 5 2 0 0 0 0 0 0 0 0 0 0 0 0 0 0 0
0 0 0 0 0 0 0 0 1 4 7 7 5 4 6 11 15 18 26 27 21 19 19 19 22 25 22 13 8 8 11 12 9 3 0 0 0 0 0 0 0 0 0 0 0 0 0 0 0
0 0 0 0 0 0 0 0 2 10 19 20 14 9 4 0 0 7 25 34 20 11 13 18 33 43 34 19 12 15 20 21 16 7 1 0 0 0 0 0 0 0 0 0 0 0 0 0 1
0 0 0 0 0 0 0 2 6 18 38 46 40 30 16 4 0 5 20 27 18 9 8 12 27 46 49 40 34 33 36 38 33 19 8 6 6 6 4 1 0 0 0 0 0 0 0 1 2
0 0 0 0 0 0 0 3 8 20 41 57 59 50 27 7 0 2 7 10 12 11 8 6 11 26 42 50 54 60 63 62 55 43 33 29 24 15 7 2 0 0 0 0 0 0 0 1 2
0 0 0 0 0 0 0 2 4 10 19 31 40 37 19 4 0 0 1 2 5 5 3 1 1 6 15 26 40 55 62 61 58 55 50 43 28 14 5 1 0 0 0 0 0 0 0 0 0
0 0 0 0 0 0 0 0 0 0 1 5 9 9 5 1 0 0 0 0 0 0 0 0 0 0 1 3 11 21 28 32 35 37 32 23 12 4 1 0 0 0 0 0 0 0 0 0 0
0 0 0 0 0 0 0 0 0 0 0 0 0 0 0 0 0 0 0 0 0 0 0 1 0 0 1 2 2 3 7 10 11 11 7 2 0 0 0 0 0 0 0 0 0 0 0 0 0
0 0 0 0 0 0 0 0 0 0 0 0 0 0 0 0 0 0 0 0 0 0 0 0 0 0 1 2 2 2 3 3 2 1 1 0 0 0 0 0 0 0 0 0 0 0 0 0 0
0 0 0 0 0 0 0 0 0 0 0 0 0 0 0 0 0 0 0 0 0 0 0 0 0 0 0 1 1 1 1 0 0 0 0 0 0 0 0 0 0 0 0 0 0 0 0 0 0
0 0 0 0 0 0 0 0 0 0 0 0 0 0 0 0 0 0 0 0 0 0 0 0 0 0 0 1 1 1 1 0 0 0 0 0 0 0 0 0 0 0 0 0 0 0 0 0 0
0 0 0 0 0 0 0 0 0 0 0 0 0 0 0 0 0 0 0 0 0 0 0 0 0 0 1 2 1 0 0 0 0 0 0 0 0 0 0 0 0 0 0 0 0 0 0 0 0
0 0 0 0 0 0 0 0 0 0 0 0 0 0 0 0 0 0 0 0 0 0 0 0 0 0 2 2 1 0 0 0 0 0 0 0 0 0 0 0 0 0 0 0 0 0 0 0 0
0 0 0 0 0 0 0 0 0 0 0 0 0 0 0 0 0 0 0 0 0 0 0 0 0 0 1 1 0 0 0 0 0 0 0 0 0 0 0 0 0 0 0 0 0 0 0 0 0
0 0 0 0 0 0 0 0 0 0 0 0 0 0 0 0 0 0 0 0 0 0 0 0 0 0 0 0 0 0 0 0 0 0 0 0 0 0 0 0 0 0 0 0 0 0 0 0 0
0 0 0 0 0 0 0 0 0 0 0 0 0 0 0 0 0 0 0 0 0 0 0 0 0 0 0 0 0 0 0 0 0 0 0 0 0 0 0 0 0 0 0 0 0 0 0 0 0
Wind_Speed
2 3 4 3 2 2 2 1 1 2 1 1 3 4 6 4 4 2 3 5 12 13 11 14 16 17 16 15 14 14 13 13 12 12 12 12 12 11 10 9 8 7 6 5 4 4 4 5 5
1 2 2 1 2 2 3 2 1 3 6 6 4 3 3 1 3 5 5 7 13 12 10 12 18 17 17 16 14 13 13 12 12 11 11 11 10 10 10 8 7 6 5 5 4 3 3 3 3
1 1 2 2 1 2 2 2 2 7 5 3 3 2 1 2 5 7 5 11 11 9 9 12 19 19 18 17 15 14 14 13 11 11 10 9 8 8 8 7 6 5 4 4 4 3 2 3 3
2 1 2 1 2 2 1 2 2 7 3 2 5 4 1 3 8 8 10 11 11 8 8 12 18 18 17 17 16 15 14 13 11 10 9 8 7 6 5 5 4 4 4 4 4 4 3 3 3
2 2 3 2 3 2 1 2 4 3 2 3 4 4 1 2 7 12 12 11 10 7 7 11 16 17 17 16 16 15 13 12 11 10 8 7 7 6 6 5 5 5 4 4 3 3 3 4 4
3 2 2 3 5 5 4 5 5 2 2 3 5 5 3 5 11 11 12 10 10 9 7 8 16 17 16 15 15 14 13 11 10 9 8 7 6 7 6 6 5 5 5 4 4 4 4 5 6
2 3 2 2 5 5 3 3 5 5 4 4 7 4 2 5 8 11 10 9 8 8 6 5 7 12 15 14 13 12 11 10 9 8 8 7 6 6 6 6 7 7 7 6 6 6 7 6 7
3 4 1 3 2 3 3 1 1 6 3 2 4 4 6 9 11 10 9 7 7 6 5 4 4 5 6 7 11 11 10 9 9 8 8 8 7 7 7 6 7 9 9 9 8 9 9 8 8
3 3 2 4 2 2 4 3 2 3 4 2 4 5 7 15 14 11 9 8 8 7 6 5 4 4 4 4 6 9 9 9 8 7 8 6 2 3 4 5 8 10 11 10 10 11 11 10 10
3 2 5 4 1 3 3 5 5 5 4 5 3 2 14 17 15 14 15 15 15 14 10 7 5 5 6 5 4 4 5 5 5 4 3 2 2 2 4 6 10 11 12 11 11 11 12 9 5
2 4 4 4 3 4 3 2 3 6 6 10 9 13 18 18 16 16 15 14 14 12 10 9 6 5 5 5 5 4 3 3 4 4 4 2 2 2 3 2 4 5 7 5 6 6 5 5 5
2 4 4 4 4 3 2 2 3 8 12 7 11 18 20 20 19 18 16 13 13 12 11 9 8 7 6 5 4 5 5 5 4 4 5 3 2 3 3 3 3 3 3 4 4 4 4 6 7
2 4 5 7 9 5 2 3 4 10 8 5 15 18 19 18 14 11 11 13 14 15 14 12 11 9 8 6 5 6 6 6 7 6 6 6 5 4 4 3 3 4 3 4 4 5 5 6 7
3 5 6 6 6 4 1 2 1 7 5 8 13 15 14 12 10 8 8 10 11 12 11 10 11 11 11 9 7 5 5 6 5 5 7 8 6 5 4 4 4 4 4 4 4 4 4 5 5
2 4 4 2 3 2 1 4 4 2 7 7 7 7 7 9 11 11 10 9 10 10 8 8 9 9 10 11 10 7 7 6 6 6 7 8 7 7 6 5 5 4 3 4 4 5 4 4 5
4 3 3 4 4 3 2 4 7 3 9 8 8 8 8 9 11 10 9 7 5 3 3 6 7 9 11 11 11 8 7 7 7 7 7 9 9 9 6 5 5 4 3 3 4 4 4 5 5
4 2 3 5 3 3 1 5 5 2 7 9 9 10 9 6 3 2 2 2 3 5 7 8 8 8 8 8 7 9 9 9 7 6 6 7 7 7 6 5 6 5 4 4 4 4 4 5 6
2 3 3 4 5 5 4 6 9 5 4 4 3 2 1 6 13 19 16 7 2 2 3 6 7 8 8 6 5 6 5 6 6 6 6 6 5 6 6 5 5 4 4 5 4 5 4 5 6
2 1 2 3 4 4 4 6 10 11 11 11 11 12 13 12 11 15 15 13 12 10 6 4 3 4 5 6 5 6 6 4 4 5 6 6 6 6 6 4 4 3 3 5 4 4 6 5 2
2 3 3 3 4 4 4 4 6 10 9 9 10 8 7 7 7 4 5 10 14 12 9 3 1 1 3 4 5 5 4 2 2 2 3 4 4 4 3 1 1 3 3 5 5 5 5 4 4
3 3 1 3 6 3 3 3 6 5 6 8 8 5 4 1 4 6 8 5 7 11 7 3 2 6 6 6 4 1 1 2 2 2 1 2 3 2 1 2 2 3 3 5 6 6 8 8 5
2 1 1 2 3 3 3 3 3 4 5 5 6 6 5 3 7 8 11 9 10 11 7 5 6 11 11 6 4 5 3 5 5 2 2 1 3 4 2 2 2 3 3 4 5 6 6 7 6
2 2 2 0 1 2 2 2 5 4 5 8 7 6 6 6 7 9 8 7 8 7 5 5 7 7 5 5 3 5 8 10 4 2 2 1 3 4 3 1 2 2 2 3 3 4 4 4 5
2 3 3 3 3 2 2 1 6 3 3 5 7 8 7 8 10 11 9 7 5 6 5 5 7 8 6 2 4 3 7 10 6 4 2 2 2 3 1 1 2 2 2 3 3 3 3 4 3
5 6 5 5 3 4 2 2 7 4 6 5 6 8 8 9 10 11 12 11 9 6 6 7 6 7 9 6 6 7 8 9 7 5 3 2 2 1 1 1 2 2 3 3 3 3 3 3 2
3 5 4 2 3 5 4 6 5 4 3 4 6 8 9 10 9 10 11 10 12 12 10 6 4 4 4 1 4 5 7 6 4 2 3 3 2 2 2 2 2 2 4 4 4 3 3 3 3
2 2 3 4 0 3 6 6 7 3 6 8 8 8 9 10 8 8 10 10 10 12 11 9 5 4 4 5 6 6 6 6 5 6 6 4 3 2 3 4 5 5 5 5 5 3 4 3 3
3 4 3 1 1 4 6 5 6 5 9 9 9 8 9 8 8 8 6 8 8 8 7 5 7 7 6 9 10 10 9 8 7 5 4 4 3 3 5 5 5 5 4 4 4 3 3 3 3
3 2 3 3 2 3 5 8 8 8 8 7 9 8 8 9 7 6 6 7 7 8 7 3 2 3 6 7 6 7 9 6 4 4 4 4 3 3 5 4 4 2 3 4 3 3 3 5 5
4 4 7 5 4 3 3 11 6 7 6 6 9 8 8 8 7 5 5 5 6 8 10 8 4 0 3 5 8 9 9 6 4 4 4 3 4 4 4 4 3 2 3 3 4 5 6 7 7
Wind_Direction
202 157 149 148 64 34 356 258 272 323 87 43 113 151 146 134 154 200 160 156 138 144 154 154 157 153 151 148 147 145 142 138 134 130 129 131 135 139 136 134 135 137 136 132 132 137 138 131 131
243 157 122 105 75 32 295 261 225 173 157 123 87 81 90 108 114 134 147 156 142 144 149 151 155 155 156 155 154 152 149 147 145 143 141 140 140 143 148 148 148 149 152 152 147 146 157 158 161
212 148 111 95 130 201 225 222 187 157 161 113 102 73 128 173 136 153 159 140 131 136 140 152 156 158 161 160 158 159 159 160 156 150 146 145 143 144 153 159 161 163 169 182 182 176 185 196 207
160 79 41 57 263 260 202 153 194 177 202 97 112 106 52 153 153 151 142 135 127 132 137 155 156 159 162 164 164 166 166 166 163 155 153 156 155 156 160 169 178 183 195 209 197 194 211 227 238
61 72 43 340 276 254 226 180 174 192 166 143 139 144 81 90 119 134 142 140 131 128 141 159 158 162 166 169 170 169 171 171 170 166 165 170 173 175 178 187 210 208 202 218 231 220 229 244 254
47 64 60 305 291 272 219 199 157 211 155 169 144 143 159 146 139 147 147 145 142 142 145 158 165 168 170 171 172 174 175 176 177 178 179 187 196 200 193 202 221 236 227 217 236 249 256 262 259
113 99 182 237 280 296 268 199 166 175 180 202 163 136 188 171 160 151 146 141 144 147 141 152 166 172 173 175 177 179 180 180 184 188 188 196 212 222 218 223 227 232 235 235 241 259 268 274 268
119 107 164 246 269 304 338 344 238 145 190 161 176 182 197 180 154 144 138 142 149 153 146 149 153 161 160 174 185 186 189 192 195 198 196 202 216 226 236 235 241 243 242 242 247 259 266 264 262
97 80 207 226 199 290 339 348 293 116 129 204 227 204 174 145 147 145 149 160 169 171 165 160 157 145 138 146 185 187 194 200 205 209 211 207 207 239 250 246 248 251 254 254 256 262 265 265 262
99 149 223 231 211 279 273 256 191 137 160 230 248 127 135 144 157 165 173 180 184 188 187 181 167 158 155 158 159 162 182 185 189 192 201 187 183 223 244 249 255 256 260 262 264 263 264 264 259
155 204 233 260 247 256 284 304 131 123 216 219 192 156 151 159 171 176 179 181 185 192 195 193 174 166 170 170 163 169 173 173 182 187 185 191 206 222 247 268 270 270 267 266 264 265 264 260 248
252 253 247 270 275 280 233 211 189 174 227 222 163 160 165 177 183 180 177 176 179 188 196 190 178 179 184 180 179 182 183 177 183 188 189 191 218 227 227 231 244 247 249 246 248 245 242 257 258
236 275 268 265 285 276 237 225 194 223 245 119 141 165 180 188 188 179 174 176 181 190 193 183 181 184 188 191 193 195 197 192 187 187 196 199 209 222 232 240 244 250 245 243 250 245 241 252 257
235 266 278 285 296 307 333 325 214 256 129 130 157 175 180 178 179 182 182 179 182 192 198 189 191 194 190 196 199 203 204 205 196 198 203 203 208 215 220 236 246 255 251 248 245 246 245 249 254
287 307 322 315 334 318 54 326 280 244 126 139 154 161 168 179 183 190 186 188 187 195 192 193 198 200 201 203 199 198 205 197 201 212 213 212 211 213 216 226 238 247 256 262 255 254 256 261 255
353 11 0 310 350 330 95 270 275 161 140 149 154 171 179 186 187 188 185 186 189 194 190 205 210 206 209 208 203 198 204 203 203 205 209 215 216 210 210 219 231 234 238 240 248 252 260 259 253
9 352 336 310 326 334 22 275 313 200 156 165 173 179 192 190 168 141 129 154 170 197 204 205 204 204 213 222 218 206 200 204 203 192 199 205 202 201 197 216 229 230 241 243 241 247 236 255 258
274 324 312 290 318 1 14 311 329 301 158 168 178 171 116 46 30 28 18 10 1 277 248 228 205 196 195 202 218 237 218 201 194 192 190 193 196 199 200 213 230 234 247 261 258 262 258 254 262
214 244 287 291 315 353 10 344 345 27 52 33 21 22 33 44 32 28 13 16 19 9 360 314 240 215 193 192 193 203 211 199 197 208 196 189 191 191 194 196 215 227 244 266 278 286 281 270 242
86 60 9 312 323 2 355 1 357 46 52 41 32 34 45 22 1 5 346 357 6 356 355 343 244 271 274 243 216 206 173 188 205 223 220 187 171 153 163 115 350 323 312 300 283 268 276 270 215
58 83 4 306 325 354 2 357 9 25 31 36 36 47 95 176 271 282 281 222 246 263 275 285 294 270 261 275 244 228 153 179 111 104 41 359 350 4 22 24 346 302 284 283 284 273 268 274 248
357 234 292 321 7 320 21 288 313 326 328 352 12 32 35 296 258 242 259 270 252 245 246 243 227 237 229 199 254 232 120 65 72 90 105 44 337 305 335 348 311 295 293 283 280 285 283 278 280
272 350 351 332 142 271 311 250 275 340 328 332 342 357 352 330 303 283 266 275 289 284 273 264 260 254 237 133 238 237 106 94 95 116 84 26 290 281 268 322 309 308 301 296 312 327 311 286 285
356 29 32 41 59 274 264 291 278 245 242 296 317 323 323 318 311 305 301 305 316 313 317 312 299 287 274 126 136 149 139 134 152 150 180 230 243 252 290 337 342 329 316 305 318 324 324 318 301
48 48 4 353 359 263 271 259 253 222 215 223 258 283 297 301 302 303 307 311 306 291 275 263 260 271 259 215 168 170 151 137 145 153 165 207 212 169 41 1 331 328 317 324 326 322 324 326 331
94 121 152 234 270 292 289 254 258 247 225 238 251 263 277 271 265 268 278 295 302 298 279 263 253 266 278 304 82 63 66 76 86 147 179 185 160 135 69 40 14 352 359 7 5 357 350 347 356
147 165 150 138 251 289 282 298 301 273 269 267 262 261 267 271 265 264 268 266 269 271 269 265 230 205 156 136 125 115 119 134 163 185 180 163 152 137 94 63 51 44 38 27 20 12 354 351 12
104 134 133 132 222 280 281 265 245 266 265 265 263 262 280 287 292 298 309 302 288 272 268 247 183 170 171 170 174 160 156 149 158 171 147 119 117 111 96 81 70 61 49 29 18 356 356 23 26
142 141 125 149 166 208 275 270 227 230 244 260 273 277 286 293 296 306 318 324 336 346 347 3 72 155 189 179 169 155 127 131 151 141 122 116 106 104 105 98 84 49 18 23 14 5 10 30 23
161 173 156 174 217 178 222 270 255 255 274 264 272 284 289 290 293 308 323 359 32 47 43 29 31 8 218 177 155 143 121 124 111 89 75 73 77 80 83 84 75 42 20 20 21 19 21 30 33